RH
28 28 30 51 56 77 94 88 78 70 72 77 82 92 97 95 100 99 100 98 91 69 74 72 73 80 78 76 80 58 26 17 18 19 15 11 9 7 6 4 3 3 3
26 30 35 44 61 68 88 91 88 75 77 80 80 98 90 100 98 98 100 97 80 70 75 74 85 87 81 84 63 27 17 18 18 15 11 8 6 5 3 3 3 4 5
28 39 50 52 67 82 78 97 80 69 79 77 86 97 100 100 100 100 100 99 73 77 83 84 94 87 89 73 26 17 18 15 12 9 8 5 3 3 3 4 4 5 12
50 56 61 68 71 93 90 91 68 71 75 86 97 100 100 99 99 100 100 94 76 84 90 98 92 94 79 25 17 18 15 11 8 6 4 3 3 4 4 4 7 25 35
55 70 69 73 82 100 99 74 63 80 99 100 97 100 100 100 100 100 94 76 78 95 98 97 99 65 22 18 18 14 10 8 5 3 3 3 4 5 5 14 33 34 32
72 77 82 90 100 96 85 59 79 100 100 99 100 100 100 100 98 96 86 79 98 99 98 99 37 18 18 16 13 9 6 4 3 4 4 5 6 6 23 38 34 32 27
70 75 92 100 97 100 81 98 100 100 100 100 100 100 100 98 96 92 98 99 98 100 81 25 17 18 16 12 8 5 3 4 5 6 6 7 8 32 41 35 39 38 34
98 98 99 98 95 100 100 99 100 100 100 100 98 99 96 99 99 99 99 100 94 37 20 18 18 15 10 7 5 3 4 5 5 6 7 12 36 44 41 42 41 40 43
99 100 100 100 100 100 100 100 99 99 99 99 94 98 98 98 99 100 91 35 24 18 19 17 13 9 6 4 3 4 5 6 7 9 18 47 50 50 55 46 51 53 50
100 100 100 100 100 100 99 98 99 96 96 97 96 90 100 99 75 32 26 19 19 18 16 11 8 6 4 4 4 5 5 7 9 22 52 55 57 58 57 62 68 66 68
98 98 99 98 98 99 98 98 91 89 96 99 99 84 42 31 24 19 20 19 18 14 10 7 6 4 4 4 5 6 7 9 18 46 50 54 58 59 67 80 88 82 76
97 93 93 92 90 88 92 95 97 98 92 57 35 28 22 20 20 20 18 15 12 9 7 6 5 4 5 6 7 8 11 16 47 50 52 58 62 70 77 84 86 86 86
97 99 100 100 96 90 86 68 48 34 29 24 20 21 21 20 19 16 13 11 9 8 7 6 5 5 6 8 9 12 17 50 50 52 59 68 69 71 76 79 83 86 82
98 94 82 65 53 39 31 29 24 21 21 21 20 20 20 18 15 13 11 8 8 7 6 6 7 8 9 10 13 18 53 53 52 58 66 67 68 74 80 86 82 83 79
65 49 35 30 28 24 21 22 22 21 22 22 21 19 16 14 13 10 8 8 8 7 7 8 9 11 12 15 20 59 62 58 62 69 68 68 74 79 85 91 90 88 86
30 29 24 22 22 23 23 23 23 23 23 21 18 16 13 11 9 9 8 8 8 9 10 12 13 13 16 22 63 67 67 66 69 69 74 77 78 83 84 90 93 90 86
22 22 23 24 24 24 25 25 25 22 19 17 14 12 10 9 9 8 9 10 11 13 16 15 14 17 24 69 68 69 73 73 69 73 77 80 81 83 88 88 87 85 83
24 27 27 26 27 27 26 25 20 18 16 12 11 9 8 9 10 11 13 15 18 19 18 16 18 26 72 73 75 78 76 71 74 79 79 80 80 83 88 86 86 87 85
30 29 28 28 28 27 23 20 18 14 12 9 8 8 9 13 15 17 19 20 20 18 17 20 36 76 78 80 80 73 68 74 74 74 76 82 85 87 92 92 88 93 91
30 29 28 29 28 24 20 17 14 10 7 6 8 10 11 13 18 19 19 17 16 16 25 61 78 80 79 71 65 70 79 75 75 75 78 83 88 93 94 94 94 90 88
30 30 31 29 24 20 16 13 8 6 6 7 7 6 8 14 16 15 13 13 22 46 72 74 75 68 60 63 73 78 73 69 69 74 80 87 90 88 90 87 82 82 82
32 33 32 26 20 16 12 6 5 5 5 5 4 7 11 11 9 9 17 36 61 66 68 63 56 60 71 74 74 72 67 67 69 73 81 86 88 86 82 81 77 77 80
36 34 27 21 17 12 6 4 4 4 4 4 7 9 7 6 9 24 46 56 56 54 51 52 64 76 83 81 71 64 66 68 69 69 70 76 78 72 69 75 84 82 82
38 30 23 18 12 6 4 3 3 3 4 6 7 5 5 12 28 43 48 49 47 46 49 59 70 81 90 84 70 68 67 67 66 66 65 59 59 65 72 70 70 74 76
35 26 20 14 7 4 3 3 3 4 5 6 5 4 12 26 38 41 43 41 40 43 57 76 84 88 92 84 70 68 68 65 61 66 69 66 61 60 62 66 69 67 71
31 23 17 8 4 3 2 3 3 4 5 5 4 11 25 33 37 39 37 39 50 67 78 83 85 87 90 84 72 71 69 63 70 71 62 60 58 60 66 66 50 49 58
Wind_Speed
31 34 41 40 47 46 43 42 40 39 38 38 37 38 37 37 32 32 35 28 30 33 33 35 36 40 45 48 51 49 48 48 50 51 51 51 51 52 55 56 58 58 55
34 32 36 38 38 47 43 41 38 38 36 36 36 37 36 36 44 37 31 31 31 34 35 36 40 45 48 52 49 48 47 47 50 53 53 52 53 55 57 57 54 51 49
33 33 34 34 35 40 43 40 35 38 38 35 36 36 38 38 29 30 33 30 33 34 37 40 45 48 51 50 48 47 47 48 49 52 54 55 56 53 54 52 49 45 42
32 32 35 29 28 36 42 40 35 35 35 36 34 39 37 45 27 31 32 33 33 37 42 43 45 50 50 48 47 47 48 48 49 52 55 56 54 51 48 47 42 39 36
31 31 30 28 27 31 33 34 35 33 33 37 37 37 41 28 30 26 29 32 36 42 43 44 49 47 46 46 47 48 49 49 52 53 53 53 49 44 42 41 39 37 35
27 27 29 28 28 33 27 35 32 30 35 37 36 39 30 29 30 27 29 34 42 42 44 47 44 44 44 45 46 48 50 50 50 51 51 48 43 40 39 38 38 37 36
32 30 28 23 28 29 31 27 29 35 40 43 39 28 32 23 19 27 34 39 40 43 44 42 41 43 44 45 46 48 48 46 45 47 47 42 40 38 38 38 36 37 37
25 21 18 21 21 23 27 34 33 35 37 32 24 18 14 17 27 30 33 38 41 40 40 40 41 42 43 45 47 47 47 45 43 41 38 36 37 36 36 37 36 39 38
18 13 10 20 21 25 32 26 22 18 10 8 11 14 20 22 26 32 36 36 37 38 39 41 42 42 43 44 46 47 45 41 39 35 32 32 34 33 34 36 36 39 39
5 12 14 20 21 20 19 15 10 8 6 8 13 17 21 27 28 31 33 34 35 37 39 39 40 43 43 44 44 45 43 38 33 27 27 28 29 29 30 34 37 39 39
17 14 16 13 16 14 8 5 2 2 7 12 17 21 24 27 30 31 33 34 36 37 37 38 40 42 43 42 43 41 38 34 28 27 25 24 25 25 27 30 33 35 35
23 20 18 15 11 8 4 1 4 7 12 16 20 22 25 27 29 32 34 36 37 38 38 40 42 43 42 41 38 35 32 28 27 25 24 24 25 24 26 30 31 32 34
17 14 12 8 7 4 1 3 6 10 14 17 20 22 25 28 30 33 35 37 39 40 42 43 43 42 40 37 34 31 26 25 25 23 23 23 25 26 28 31 30 32 33
8 7 5 5 5 5 6 8 10 12 14 18 21 24 27 30 34 37 38 38 40 42 43 41 40 38 36 32 28 24 23 24 23 23 22 23 25 28 29 32 33 33 34
6 7 7 6 6 7 8 9 12 14 17 21 24 28 32 36 38 40 40 41 42 43 42 39 36 33 29 25 22 21 21 22 22 23 24 25 27 29 30 31 33 33 34
6 6 5 5 6 8 11 12 15 19 22 26 29 33 36 38 40 41 42 43 42 41 37 34 30 26 22 17 16 17 19 20 21 21 23 26 29 30 29 29 31 33 33
7 6 7 8 9 12 15 18 21 23 27 31 35 38 41 42 43 44 43 41 39 37 33 29 24 18 14 14 14 15 16 18 19 21 23 24 27 28 29 29 30 31 30
9 10 11 12 14 16 18 21 24 28 33 36 39 41 42 43 44 43 40 37 33 30 27 22 15 11 11 12 13 14 15 17 18 20 21 22 26 28 28 28 30 31 32
9 11 12 14 16 19 22 26 29 33 37 39 41 43 44 41 39 36 33 30 27 23 17 12 8 9 10 11 12 14 16 17 17 17 19 22 23 26 27 29 30 31 32
10 12 14 17 19 22 26 30 33 37 41 43 43 41 36 30 27 25 24 21 17 11 8 7 8 9 10 11 13 14 15 16 16 16 18 20 22 25 27 28 30 31 31
12 14 16 19 22 25 29 33 37 41 43 42 39 34 25 20 19 17 15 11 10 8 8 8 8 10 11 12 14 15 15 15 15 15 18 20 22 25 26 28 30 32 33
13 16 19 21 24 28 32 36 40 43 40 36 30 21 17 16 13 10 9 8 7 7 8 8 9 9 11 13 14 13 14 13 15 16 18 20 23 25 26 29 31 34 36
15 18 21 23 27 31 35 39 41 39 35 27 18 14 12 9 7 7 7 7 7 7 7 8 10 12 14 15 16 14 13 13 14 17 18 21 23 25 26 30 32 33 36
17 20 22 26 29 33 37 39 36 32 26 18 13 9 5 5 5 5 6 6 6 6 7 9 11 13 14 16 16 15 14 14 15 18 21 23 25 28 30 31 32 33 34
19 22 25 28 32 36 37 34 31 26 19 13 8 3 3 4 3 4 4 5 6 8 10 11 13 14 15 16 15 14 13 15 18 21 24 26 27 28 30 31 32 32 32
21 24 27 30 33 35 33 29 26 20 14 8 3 1 2 2 2 4 5 6 8 10 12 12 13 15 16 16 15 13 13 15 18 22 25 25 27 29 31 31 32 32 30
Wind_Direction
265 255 252 245 239 241 236 240 244 240 238 244 246 238 246 255 249 264 254 261 260 265 275 283 289 296 303 305 307 305 305 304 304 304 306 306 305 303 302 302 302 301 300
263 254 248 246 234 238 238 239 241 234 237 240 242 234 246 253 271 251 264 257 261 268 278 286 291 297 302 304 303 303 302 303 304 303 304 304 304 304 304 304 303 303 301
238 241 242 239 232 234 235 235 237 231 237 243 237 234 234 254 245 249 258 257 263 273 279 284 289 296 300 301 301 301 302 303 302 302 304 304 303 307 306 304 302 301 300
235 235 237 233 235 235 233 233 233 233 236 234 226 232 248 246 237 245 249 259 268 276 283 289 293 297 300 300 301 302 302 302 302 303 302 303 308 309 305 302 301 298 298
236 234 236 228 230 234 227 225 224 227 225 223 235 234 238 240 239 244 258 268 275 283 288 293 295 298 299 300 301 302 302 303 303 303 305 308 308 305 301 299 300 303 303
230 231 225 223 226 234 213 215 219 223 220 216 224 234 235 231 246 251 266 274 282 286 293 296 297 298 299 300 301 301 303 303 303 308 307 306 304 303 302 303 304 305 305
223 214 213 214 217 227 213 211 222 227 217 222 219 221 227 230 251 262 273 281 289 291 295 295 296 298 299 299 300 300 301 304 308 306 305 305 304 305 305 304 307 307 312
219 200 206 203 204 207 213 221 226 228 225 224 217 223 257 261 266 277 286 288 292 294 294 296 297 297 298 299 300 302 307 311 306 303 302 301 300 301 303 307 313 311 315
187 173 194 194 210 215 222 225 221 203 186 219 260 276 267 278 287 287 289 292 293 295 297 297 298 299 299 300 303 307 308 307 304 304 302 300 300 304 307 309 312 312 314
166 198 212 206 223 220 221 162 158 195 221 258 269 278 285 281 288 290 292 291 294 295 294 296 297 299 302 304 306 306 306 304 304 300 296 296 299 304 308 309 309 311 313
100 103 116 119 114 111 122 111 203 297 313 290 286 287 291 294 294 293 294 294 292 293 295 296 299 302 304 305 305 305 303 304 303 299 300 301 305 307 305 303 304 307 309
96 101 104 103 109 116 116 248 335 312 296 291 290 292 293 293 294 293 293 295 298 299 300 304 304 303 304 304 303 302 301 301 302 305 309 310 311 307 304 304 307 308 310
87 88 90 114 122 123 190 284 278 281 289 294 296 295 294 294 295 298 302 302 302 305 306 305 304 305 307 306 304 303 301 302 305 310 313 314 311 310 311 311 311 310 313
100 95 84 52 30 356 332 317 311 302 301 300 300 300 300 302 305 305 304 304 304 303 303 305 305 307 306 304 303 300 302 306 309 312 316 317 316 317 316 315 316 315 315
55 46 35 18 354 342 333 324 318 314 309 305 306 309 310 308 307 306 305 302 301 302 305 307 308 306 303 302 300 301 305 308 312 317 320 321 320 320 322 320 319 320 320
56 41 25 11 356 342 335 327 319 316 316 315 313 311 310 309 306 303 302 303 305 307 309 308 306 303 300 294 294 301 306 311 317 321 322 322 323 326 327 325 325 326 326
34 33 18 360 348 340 334 329 324 319 315 314 315 316 313 309 308 308 309 310 310 310 310 309 307 305 299 301 306 309 312 315 321 324 324 326 328 331 332 334 332 331 331
21 9 355 345 339 334 329 325 323 322 321 321 318 314 314 314 314 315 315 315 315 314 313 313 312 308 310 312 314 318 320 323 327 327 327 329 335 338 339 339 339 339 338
356 347 342 339 334 331 329 327 325 324 322 318 317 317 317 318 318 319 322 322 322 321 319 320 327 324 322 323 326 328 329 332 332 331 333 336 339 343 347 345 343 343 340
341 339 337 334 333 331 328 327 326 323 320 320 320 319 321 324 327 327 328 330 336 348 352 349 341 338 337 339 337 336 335 334 335 334 335 338 343 344 344 344 345 344 344
335 334 334 333 331 329 328 327 325 322 323 323 323 326 332 338 340 342 351 8 16 17 4 358 353 350 349 346 344 340 338 337 340 341 340 341 344 343 343 344 346 346 346
332 332 331 330 330 329 329 327 326 326 326 327 329 334 343 349 357 15 34 36 25 13 5 0 358 354 349 348 348 345 342 345 345 346 343 342 342 341 340 343 346 348 348
330 329 329 330 330 330 329 329 328 329 329 331 336 344 353 7 31 40 45 34 22 15 6 359 352 348 352 349 348 350 350 351 349 346 346 343 341 338 339 345 344 344 345
326 328 330 331 331 330 330 330 330 331 332 335 341 353 21 50 49 43 36 25 14 3 353 346 343 345 346 347 347 347 348 352 350 347 343 342 343 343 342 341 340 340 341
327 329 331 332 331 331 332 331 332 333 334 336 345 10 68 68 51 28 17 5 354 344 339 338 340 343 344 344 344 345 349 351 351 350 348 344 342 341 340 340 341 342 343
329 330 332 333 333 332 332 333 334 333 333 336 347 97 94 79 24 351 347 345 337 332 332 335 337 341 340 340 342 344 351 353 353 349 345 343 341 340 340 342 344 343 343